Location: Br�znic
(45.9167°N, 22.6500°E)
Time: 02:15:30
(UTC+00:00)

Cosmos 2181 Rocket - Visible Passes

Search period start: 14 June 2021 00:00
Search period end: 24 June 2021 00:00
Orbit: 952 x 1015 km, 82.9° (Epoch: 13 June)

Date Brightness Start Highest point End Pass type
(mag) Time Alt. Az. Time Alt. Az. Time Alt. Az.
16 Jun 6.8 19:01:07 10° WSW 19:05:12 18° WNW 19:09:22 10° NNW visible
20 Jun 7.2 02:01:02 10° NNE 02:04:16 14° ENE 02:07:28 10° E visible
20 Jun 7.5 19:10:48 10° WNW 19:11:24 10° NW 19:12:02 10° NW visible
23 Jun 7.1 01:38:52 10° NNE 01:41:57 14° ENE 01:45:03 10° E visible
